Regional Weather Roundup
Issued by NWS

Home | Current Version | Previous Version | Graphics & Text | Print | Product List | Glossary Off
Versions: 1 2 3 4 5 6 7 8 9 10 11 12 13 14 15 16 17 18 19 20 21 22 23 24 25 26 27 28 29 30 31 32 33 34 35 36 37 38 39 40 41 42 43 44 45 46 47 48 49 50

000
ASUS43 KMKX 302311
RWRWI

WISCONSIN REGIONAL WEATHER ROUNDUP
NATIONAL WEATHER SERVICE MILWAUKEE/SULLIVAN WI
600 PM CDT SAT APR 30 2016

NOTE: "FAIR" INDICATES FEW OR NO CLOUDS BELOW 12,000 FEET WITH NO
SIGNIFICANT WEATHER AND/OR OBSTRUCTIONS TO VISIBILITY.

WIZ001-002-006>008-014>016-023>028-010000-
NORTHWEST WISCONSIN

CITY           SKY/WX    TMP DP  RH WIND       PRES   REMARKS
SUPERIOR ARPT  CLOUDY    43  33  69 NE13G21   30.23S
ASHLAND        CLOUDY    45  34  65 NE17G26   30.23R
HAYWARD        MOSUNNY   49  27  42 NE23G35   30.16R
SIREN          CLOUDY    51  25  36 NE18G28   30.13R
CUMBERLAND     CLOUDY    50  30  46 N16G23    30.10R
RICE LAKE      CLOUDY    53  32  45 N21       30.10R
CHETEK         CLOUDY    54  36  50 N10G18    30.07R
LADYSMITH      PTSUNNY   57  33  39 NE13G20   30.08R
EAU CLAIRE     CLOUDY    57  34  41 E9        30.04R
MENOMONIE      CLOUDY    57  36  45 E8        30.04F
NEW RICHMOND   CLOUDY    54  34  46 NE18G28   30.05S
OSCEOLA        CLOUDY    55  35  46 NE18G26   30.09S
$$

WIZ003>005-009-010-017-018-010000-
NORTH CENTRAL WISCONSIN

CITY           SKY/WX    TMP DP  RH WIND       PRES   REMARKS
MANITOWISH WTR MOSUNNY   51  33  49 NE14G21   30.12R
ARBOR VITAE    PTSUNNY   56  34  43 NE10G17   30.10S
WOODRUFF       PTSUNNY   56  34  43 NE10G17   30.10S
RHINELANDER    CLOUDY    54  31  41 NE9       30.09R
EAGLE RIVER    CLOUDY    52  28  39 NE15      30.10S
LAND O LAKES   CLOUDY    52  32  46 NE9G18    30.13S
PHILLIPS       CLOUDY    54  33  45 N15G21    30.08R
TOMAHAWK       CLOUDY    54  32  43 NE8G17    30.08R
MEDFORD        CLOUDY    55  33  44 E6        30.06R
MERRILL        CLOUDY    55  33  43 E14G22    30.06R
$$

WIZ029-030-035-036-043>047-010000-
CENTRAL WISCONSIN

CITY           SKY/WX    TMP DP  RH WIND       PRES   REMARKS
WAUSAU         CLOUDY    55  31  39 E12       30.06R
MOSINEE        SUNNY     52  28  40 E13G18    30.07R
MARSHFIELD     CLOUDY    52  32  46 E8        30.07R
STEVENS POINT  CLOUDY    49  29  45 E14G20    30.08R
WAUPACA        CLOUDY    53  31  43 NE6       30.08R
WAUTOMA        NOT AVBL
WISC RAPIDS    CLOUDY    52  27  38 E8        30.08R
CAMP DOUGLAS   LGT RAIN  47  47  99 E10       30.05R
$$

WIZ011>013-019>022-031-037>040-048>050-010000-
NORTHEAST WISCONSIN

CITY           SKY/WX    TMP DP  RH WIND       PRES   REMARKS
ANTIGO         CLOUDY    52  34  51 E13       30.07R
SHAWANO        CLOUDY    54  32  43 E13G22    30.07S
OCONTO         CLOUDY    50  30  45 NE8       30.07S
STURGEON BAY   CLOUDY    52  27  37 NE10G18   30.09S
GREEN BAY      CLOUDY    50  37  61 NE14      30.06S
MANITOWOC      CLOUDY    47  34  60 MISG      30.05S
APPLETON       CLOUDY    50  32  50 NE13G18   30.04R
CLINTONVILLE   CLOUDY    52  27  37 E12       30.07R
OSHKOSH        CLOUDY    50  36  58 NE10      30.04R
$$

WIZ032>034-041-042-053>061-010000-
SOUTHWEST WISCONSIN

CITY           SKY/WX    TMP DP  RH WIND       PRES   REMARKS
LA CROSSE      RAIN      48  38  68 NE15G23   30.04R
SPARTA         LGT RAIN  47  38  71 E16G25    30.06R
VIROQUA        CLOUDY    44  42  94 NE8       30.01R
BOSCOBEL       CLOUDY    47  32  56 E12G21    29.98S
PRAIRIE DU CHI DRIZZLE   46  40  81 NE7       29.98R
PLATTEVILLE    CLOUDY    44  42  94 E22       29.94R
$$

WIZ056-057-062-063-064-067-068-010000-
SOUTH CENTRAL WISCONSIN

CITY           SKY/WX    TMP DP  RH WIND       PRES   REMARKS
REEDSBURG      RAIN      44  42  95 E6        30.04R
BARABOO/DELLS  RAIN      43  40  89 E7        30.04R
LONE ROCK      LGT RAIN  45  41  86 E18G28    29.98F FOG
MINERAL POINT  LGT RAIN  43  43 100 NE24G30   29.93F
MADISON        RAIN      44  41  89 NE13      30.01R FOG
MIDDLETON      CLOUDY    45  42  89 NE13G20   30.00F
WATERTOWN      LGT RAIN  43  43 100 NE7       30.02R
MONROE         LGT RAIN  43  41  93 NE17G28   29.93S
JANESVILLE     LGT RAIN  45  45 100 E23G29    29.94F FOG
$$

WIZ051-052-058>065-066-070>072-010000-
SOUTHEAST WISCONSIN

CITY           SKY/WX    TMP DP  RH WIND       PRES   REMARKS
MILWAUKEE      LGT RAIN  43  39  86 NE14      30.01R
WAUKESHA       LGT RAIN  41  39  93 NE12      30.02R
MILWAUKEE/TIMM NOT AVBL
RACINE         LGT RAIN  43  39  86 NE13      30.02S
BURLINGTON     RAIN      41  40  95 NE9       29.99R
KENOSHA        LGT RAIN  43  40  89 NE13      29.98S FOG
FOND DU LAC    LGT RAIN  49  38  65 NE10      30.04R
SHEBOYGAN      LGT RAIN  45  35  68 NE15      30.04R
WEST BEND      LGT RAIN  43  39  87 NE9       30.03R
JUNEAU         RAIN      44  40  88 NE7       30.04R
$$

LSZ147-162-010000-
LAKE SUPERIOR

STATION/POSITION TIME  TEMP    WIND        PRES    WAVE
                       AIR SEA DIR/SP/G            HT/PER
                 (UTC) (F)     (DEG/KT/KT) (MB)    (FT/S)
W MID LAKE BUOY  2250   40 37   60/ 12/ 14 1025.1F   2/ 5
DEVILS ISLAND    2300   40      70/ 18/ 21 1024.7F
SAXON HARBOR     2200   41      50/ 20/ 23 1022.0F
$$

LMZ867-665-643>646-010000-
LAKE MICHIGAN

STATION/POSITION TIME  TEMP    WIND        PRES    WAVE
                       AIR SEA DIR/SP/G            HT/PER
                 (UTC) (F)     (DEG/KT/KT) (MB)    (FT/S)
CHAMBERS ISLAND  2200   43      10/  9/ 10 1019.0F
N MID LAKE BUOY  2250   43 39   30/ 12/ 14 1018.7F   1
NORTHPORT PIER   2200   51      40/  9/ 12 1019.0F
ALGOMA LAKESHORE 2215           50/ 15/ 19   N/A
KEWAUNEE LAKESHO 2200   44                 1017.4F
SHEBOYGAN LAKESH 2300   42      20/ 14/ 15 1018.0R
PORT WASHINGTON  2200   44      40/ 14/ 17 1017.3F
S MID LAKE BUOY  2250   43 40   70/ 10/ 12 1015.4F   1/ 3
KENOSHA   LAKESH 2300   42      30/ 16/ 18 1015.2S
$$

TC  - TEMPERATURE IN CELSIUS
VSB - VISIBILITY IN STATUTE MILES
WCI - WIND CHILL INDEX
HX  - HEAT INDEX





USA.gov is the U.S. government's official web portal to all federal, state and local government web resources and services.